Regional Weather Roundup
Issued by NWS Kansas City/Pleasant Hill, MO

Home | Current Version | Previous Version | Graphics & Text | Print | Product List | Glossary Off
Versions: 1 2 3 4 5 6 7 8 9 10 11 12 13 14 15 16 17 18 19 20 21 22 23 24 25 26 27 28 29 30 31 32 33 34 35 36 37 38 39 40 41 42 43 44 45 46 47 48 49 50

000
ASUS43 KEAX 271404
RWREAX

WEATHER ROUNDUP FOR EASTERN KANSAS AND NORTHWEST MISSOURI
NATIONAL WEATHER SERVICE KANSAS CITY/PLEASANT HILL MO
800 AM CST FRI FEB 27 2015

KSZ040-057-103>105-MOZ028-029-037-043-271500-
...KANSAS CITY METROPOLITAN AREA...

CITY           SKY/WX    TMP DP  RH WIND       PRES   REMARKS
K.C. INTL      PTSUNNY    4  -2  76 N5        30.62R WCI  -5
K.C. DOWNTOWN  MOSUNNY    7  -2  66 CALM      30.66R
LEES SUMMIT    SUNNY      6  -2  69 NE5       30.63R WCI  -3
OLATHE - IXD   MOSUNNY    5  -2  72 N5        30.63R WCI  -4
OLATHE - OJC   MOSUNNY    6  -2  69 E5        30.61R WCI  -3
LAWRENCE       MOSUNNY    6  -1  73 NE6       30.65R WCI  -4

$$

MOZ001>008-011>017-020>025-030>033-038>040-044>046-053-054-271500-
...NORTHERN AND CENTRAL MISSOURI...

CITY           SKY/WX    TMP DP  RH WIND       PRES   REMARKS
ST. JOSEPH     SUNNY      3  -2  79 CALM      30.66R
MOSBY          SUNNY      5   0  78 CALM      30.65R
WARRENSBURG    MOSUNNY    5   0  78 CALM      30.66R
WHITEMAN AFB   MOSUNNY    5  -2  73 NE5       30.63R WCI  -4
CLINTON        SUNNY      9   1  72 NE7       30.65R WCI  -3
SEDALIA        SUNNY      6  -1  73 NE6       30.65R WCI  -4
WARSAW         NOT AVBL
MARSHALL       SUNNY      5   0  78 CALM      30.65R
CHILLICOTHE      N/A      3  -4  72 CALM      30.67R
MOBERLY        SUNNY      3  -4  72 NW5       30.65R WCI  -6
KIRKSVILLE     SUNNY      0  -5  79 NW5       30.64R WCI -10

$$

MOZ041-047>049-056>058-063>065-088>090-097-271500-
...EASTERN AND SOUTHERN MISSOURI...

CITY           SKY/WX    TMP DP  RH WIND       PRES   REMARKS
ST. LOUIS INTL MOSUNNY    6  -4  63 NW7       30.66R WCI  -6
SPIRIT OF STL  SUNNY      5  -4  66 VRB5      30.67R WCI  -4
COLUMBIA       SUNNY      5  -2  72 W3        30.65R
JEFFERSON CITY SUNNY      6  -2  69 CALM      30.70R
MEXICO         SUNNY      3   0  85 NW5       30.64R WCI  -6
HANNIBAL       SUNNY      0  -9  65 NW6       30.65R WCI -12
ROLLA          SUNNY      5  -5  63 N8        30.59R WCI  -8
OSAGE BEACH    SUNNY      7   0  72 E8        30.62S WCI  -6
SPRINGFIELD    SUNNY      8   0  69 NE10      30.54F WCI  -6
BRANSON        SUNNY     10   1  67 NE9       30.54S WCI  -2
NEVADA         SUNNY      9   1  72 NE7       30.64R WCI  -3
JOPLIN         MOSUNNY   11   2  67 NE8       30.60R WCI  -1
WEST PLAINS    SUNNY      7  -2  66 N12       30.57R WCI  -8

$$

IAZ060-094-KSZ022-034>040-054-083-096-NEZ052-066-093-271500-
...KANSAS...SOUTHEAST NEBRASKA AND IOWA...

CITY           SKY/WX    TMP DP  RH WIND       PRES   REMARKS
TOPEKA         MOSUNNY    7   0  73 SE3       30.66R
MANHATTAN      MOCLDY     8   2  76 CALM      30.63R
EMPORIA        CLOUDY     7   1  76 NE7       30.60R WCI  -5
CHANUTE        CLOUDY     9   0  67 NE8       30.62R WCI  -3
WICHITA        CLOUDY    12  -2  53 NE14      30.56R WCI  -3
OMAHA          CLEAR      1  -4  79 CALM      30.63R
LINCOLN        CLEAR      0  -6  76 N3        30.61S
FALLS CITY     SUNNY      0  -5  79 NW3       30.63R
LAMONI         SUNNY     -3  -9  75 W5        30.61R WCI -13
DES MOINES     SUNNY     -4 -11  72 NW3       30.62R

$$



USA.gov is the U.S. government's official web portal to all federal, state and local government web resources and services.